This demonstration page uses our WeatherBlox Daily Observations layout. Learn more.

Left ArrowRight Arrow

44.8408, -93.29828

Hourly Observations for June 6, 2017

Temp ( °F °C ) Dew Point ( °F °C ) Humidity (%) Winds ( mph kmh ) Pressure ( in mb ) Visibility ( mi km ) Precip ( " mm )
12:53 am 00:53 Clear 67 19.4 40 4.4 37 37 ENE 6 9 30.05 1018 10 16 0.00 0.00
1:53 am 01:53 Clear 65 18.3 39 3.9 39 39 ENE 6 9 30.05 1018 10 16 0.00 0.00
2:53 am 02:53 Clear 63 17.2 36 2.2 37 37 ENE 6 9 30.06 1018 10 16 0.00 0.00
3:53 am 03:53 Clear 60 15.6 38 3.3 44 44 NE 5 7 30.06 1018 10 16 0.00 0.00
4:53 am 04:53 Clear 58 14.4 39 3.9 50 50 NE 3 6 30.08 1019 10 16 0.00 0.00
5:53 am 05:53 Sunny 59 15 39 3.9 48 48 E 7 11 30.09 1019 10 16 0.00 0.00
6:53 am 06:53 Sunny 60 15.6 42 5.6 52 52 E 8 13 30.10 1019 10 16 0.00 0.00
7:53 am 07:53 Sunny 65 18.3 42 5.6 43 43 SE 8 13 30.11 1020 10 16 0.00 0.00
8:53 am 08:53 Sunny 68 20 42 5.6 39 39 SSE 9 15 30.12 1020 10 16 0.00 0.00
9:53 am 09:53 Sunny 71 21.7 43 6.1 36 36 SSE 8 13 30.12 1020 10 16 0.00 0.00
10:53 am 10:53 Sunny 75 23.9 45 7.2 34 34 E 7 11 30.11 1020 10 16 0.00 0.00
11:53 am 11:53 Sunny 76 24.4 44 6.7 32 32 SE 6 9 30.11 1020 10 16 0.00 0.00
12:53 pm 12:53 Sunny 77 25 43 6.1 30 30 ENE 9 15 30.10 1019 10 16 0.00 0.00
1:53 pm 13:53 Mostly Sunny 80 26.7 41 5 25 25 VRB 7 11 30.09 1019 10 16 0.00 0.00
2:53 pm 14:53 Mostly Sunny 80 26.7 38 3.3 22 22 S 8 13 30.06 1018 10 16 0.00 0.00
3:53 pm 15:53 Mostly Sunny 80 26.7 43 6.1 27 27 VRB 7 11 30.06 1018 10 16 0.00 0.00
4:53 pm 16:53 Mostly Sunny 81 27.2 40 4.4 23 23 E 7 11 30.06 1018 10 16 0.00 0.00
5:53 pm 17:53 Mostly Sunny 81 27.2 38 3.3 21 21 SE 10 17 30.05 1018 10 16 0.00 0.00
6:53 pm 18:53 Mostly Sunny 80 26.7 38 3.3 22 22 SE 10 17 30.04 1017 10 16 0.00 0.00
7:53 pm 19:53 Partly Cloudy 78 25.6 39 3.9 25 25 SE 10 17 30.04 1017 10 16 0.00 0.00
8:53 pm 20:53 Mostly Cloudy 75 23.9 41 5 29 29 SE 8 13 30.04 1017 10 16 0.00 0.00
9:53 pm 21:53 Partly Cloudy 71 21.7 44 6.7 38 38 SE 7 11 30.06 1018 10 16 0.00 0.00
10:53 pm 22:53 Partly Cloudy 70 21.1 43 6.1 38 38 SE 8 13 30.06 1018 10 16 0.00 0.00
11:53 pm 23:53 Mostly Clear 68 20 46 7.8 45 45 SE 7 11 30.07 1018 10 16 0.00 0.00

Powered by AerisWeather